MOLNIYA 1-63

Satellite information

Favourite Embed

Satellite Type and Status

PAYLOADIN ORBIT

Key statistics

Satellite MOLNIYA 1-63 at a glance.

Uptime

14976

Days in orbit

Revolutions

≈ 2.0

Per day

Orbit

HEO

HEO

Inclination

63.3

Latest

Satellite identification and parameters

Extended collection of information and parameters for MOLNIYA 1-63.

Object identification

Identified? True

Debris? False

Object name: MOLNIYA 1-63

International designator: 1984-124A

Object number (NORAD): 15429

Object ID (CCSDS): 15429

Country: COMMONWEALTH OF INDEPENDENT STATES (CIS)

Current information (Y/N): Y

RCS size: LARGE

Orbital parameters

Period: 717.184 minutes

Inclination: 63.325 deg

SMA: 26540.8 km

Apoapsis: 39447.205 km

Periapsis: 878.125 km

RAAN: 16.8155 deg

Eccentricy: 0.7265998

Argument of periapsis: 256.9792 deg

Mean anomaly: 272.7196 deg

Mean motion: 2.00785225 rev/day

Mean motion (dot): -0.00001704 rev/day2

B* drag term: 0.0 1/REarth

Two-line elements (TLE)

Creation date: Dec. 14, 2025, 3:07 a.m.

Reference frame: TEME

Reference center: EARTH

Epoch: Dec. 13, 2025, 9:19 a.m. UTC

TLE line 0: 0 MOLNIYA 1-63

TLE line 1: 1 15429U 84124A 25347.38844894 -.00001704 00000-0 00000-0 0 9992

TLE line 2: 2 15429 63.3250 16.8155 7265998 256.9792 272.7196 2.00785225300338

Live tracking on map

Real-time ground track for satellite MOLNIYA 1-63.

In-orbit conjunctions

A list of the most updated potential collisions computed for object MOLNIYA 1-63.

Target Orbit TCA Probability of collision Miss distance Type
MOLNIYA 3-13 HEO 2024-11-02 00:34:16 TBA 1187.0 (m) PAYLOAD

Associated space launch

Military communications satellite in a highly elliptic orbit

MOLNIYA 1-63 was lifted into orbit during the mission ‘Molniya-M | Molniya-1T 63’, on board a Molniya-M space rocket.

The launch took place on Dec. 14, 1984, 8:40 p.m. from 41/1.

For more information about the launch, click the button.

Launch to space Molniya-M | Molniya-1T 63
Molniya-M | Molniya-1T 63

Agency: N/A

Status: Launch Successful

Launch date: Dec. 14, 1984, 8:40 p.m. UTC

Rocket: Molniya-M

Launch pad: 41/1

Location: Plesetsk Cosmodrome, Russian Federation

...

Latest news about this satellite

There are no fresh news available about this satellite. Check back as we update our databases every day.


Newsletter sign-up

Weekly statistics, charts and insights to help you stay on top of the space industry.